Date Time, Air Temperature, X, N, R 
2017-09-07 00:00,66.7,0,0,0
2017-09-07 00:06,66.6,0,0,0
2017-09-07 00:12,66.6,0,0,0
2017-09-07 00:18,66.6,0,0,0
2017-09-07 00:24,66.7,0,0,0
2017-09-07 00:30,66.7,0,0,0
2017-09-07 00:36,66.9,0,0,0
2017-09-07 00:42,66.9,0,0,0
2017-09-07 00:48,66.9,0,0,0
2017-09-07 00:54,66.9,0,0,0
2017-09-07 01:00,66.9,0,0,0
2017-09-07 01:06,67.1,0,0,0
2017-09-07 01:12,67.5,0,0,0
2017-09-07 01:18,67.3,0,0,0
2017-09-07 01:24,67.3,0,0,0
2017-09-07 01:30,67.3,0,0,0
2017-09-07 01:36,67.5,0,0,0
2017-09-07 01:42,67.5,0,0,0
2017-09-07 01:48,67.5,0,0,0
2017-09-07 01:54,67.5,0,0,0
2017-09-07 02:00,67.5,0,0,0
2017-09-07 02:06,67.3,0,0,0
2017-09-07 02:12,67.3,0,0,0
2017-09-07 02:18,67.3,0,0,0
2017-09-07 02:24,67.5,0,0,0
2017-09-07 02:30,67.5,0,0,0
2017-09-07 02:36,67.6,0,0,0
2017-09-07 02:42,67.6,0,0,0
2017-09-07 02:48,67.6,0,0,0
2017-09-07 02:54,67.6,0,0,0
2017-09-07 03:00,67.6,0,0,0
2017-09-07 03:06,68.0,0,0,0
2017-09-07 03:12,67.8,0,0,0
2017-09-07 03:18,68.0,0,0,0
2017-09-07 03:24,67.6,0,0,0
2017-09-07 03:30,67.6,0,0,0
2017-09-07 03:36,67.6,0,0,0
2017-09-07 03:42,67.6,0,0,0
2017-09-07 03:48,67.5,0,0,0
2017-09-07 03:54,67.6,0,0,0
2017-09-07 04:00,67.3,0,0,0
2017-09-07 04:06,67.1,0,0,0
2017-09-07 04:12,66.9,0,0,0
2017-09-07 04:18,67.1,0,0,0
2017-09-07 04:24,66.9,0,0,0
2017-09-07 04:30,66.9,0,0,0
2017-09-07 04:36,66.9,0,0,0
2017-09-07 04:42,67.1,0,0,0
2017-09-07 04:48,66.7,0,0,0
2017-09-07 04:54,66.4,0,0,0
2017-09-07 05:00,66.7,0,0,0
2017-09-07 05:06,66.7,0,0,0
2017-09-07 05:12,66.6,0,0,0
2017-09-07 05:18,66.4,0,0,0
2017-09-07 05:24,66.4,0,0,0
2017-09-07 05:30,66.6,0,0,0
2017-09-07 05:36,66.4,0,0,0
2017-09-07 05:42,66.4,0,0,0
2017-09-07 05:48,66.6,0,0,0
2017-09-07 05:54,66.6,0,0,0
2017-09-07 06:00,66.6,0,0,0
2017-09-07 06:06,66.6,0,0,0
2017-09-07 06:12,66.6,0,0,0
2017-09-07 06:18,66.7,0,0,0
2017-09-07 06:24,66.6,0,0,0
2017-09-07 06:30,66.6,0,0,0
2017-09-07 06:36,66.4,0,0,0
2017-09-07 06:42,66.4,0,0,0
2017-09-07 06:48,66.6,0,0,0
2017-09-07 06:54,66.6,0,0,0
2017-09-07 07:00,66.6,0,0,0
2017-09-07 07:06,66.4,0,0,0
2017-09-07 07:12,66.2,0,0,0
2017-09-07 07:18,66.4,0,0,0
2017-09-07 07:24,66.6,0,0,0
2017-09-07 07:30,66.6,0,0,0
2017-09-07 07:36,66.4,0,0,0
2017-09-07 07:42,66.2,0,0,0
2017-09-07 07:48,66.2,0,0,0
2017-09-07 07:54,66.4,0,0,0
2017-09-07 08:00,66.0,0,0,0
2017-09-07 08:06,65.8,0,0,0
2017-09-07 08:12,65.7,0,0,0
2017-09-07 08:18,65.5,0,0,0
2017-09-07 08:24,65.3,0,0,0
2017-09-07 08:30,65.1,0,0,0
2017-09-07 08:36,65.3,0,0,0
2017-09-07 08:42,65.1,0,0,0
2017-09-07 08:48,64.9,0,0,0
2017-09-07 08:54,64.9,0,0,0
2017-09-07 09:00,64.8,0,0,0
2017-09-07 09:06,64.9,0,0,0
2017-09-07 09:12,64.8,0,0,0
2017-09-07 09:18,64.6,0,0,0
2017-09-07 09:24,64.4,0,0,0
2017-09-07 09:30,64.4,0,0,0
2017-09-07 09:36,64.4,0,0,0
2017-09-07 09:42,64.4,0,0,0
2017-09-07 09:48,64.4,0,0,0
2017-09-07 09:54,64.2,0,0,0
2017-09-07 10:00,64.0,0,0,0
2017-09-07 10:06,63.9,0,0,0
2017-09-07 10:12,64.0,0,0,0
2017-09-07 10:18,64.0,0,0,0
2017-09-07 10:24,64.0,0,0,0
2017-09-07 10:30,63.7,0,0,0
2017-09-07 10:36,63.5,0,0,0
2017-09-07 10:42,63.5,0,0,0
2017-09-07 10:48,63.1,0,0,0
2017-09-07 10:54,63.1,0,0,0
2017-09-07 11:00,63.1,0,0,0
2017-09-07 11:06,63.0,0,0,0
2017-09-07 11:12,62.8,0,0,0
2017-09-07 11:18,62.6,0,0,0
2017-09-07 11:24,62.8,0,0,0
2017-09-07 11:30,63.0,0,0,0
2017-09-07 11:36,62.8,0,0,0
2017-09-07 11:42,62.2,0,0,0
2017-09-07 11:48,62.4,0,0,0
2017-09-07 11:54,62.6,0,0,0
2017-09-07 12:00,62.8,0,0,0
2017-09-07 12:06,63.1,0,0,0
2017-09-07 12:12,62.8,0,0,0
2017-09-07 12:18,62.8,0,0,0
2017-09-07 12:24,63.0,0,0,0
2017-09-07 12:30,62.6,0,0,0
2017-09-07 12:36,62.8,0,0,0
2017-09-07 12:42,63.0,0,0,0
2017-09-07 12:48,63.1,0,0,0
2017-09-07 12:54,63.3,0,0,0
2017-09-07 13:00,63.5,0,0,0
2017-09-07 13:06,63.5,0,0,0
2017-09-07 13:12,64.0,0,0,0
2017-09-07 13:18,63.5,0,0,0
2017-09-07 13:24,63.5,0,0,0
2017-09-07 13:30,63.7,0,0,0
2017-09-07 13:36,63.5,0,0,0
2017-09-07 13:42,63.3,0,0,0
2017-09-07 13:48,64.0,0,0,0
2017-09-07 13:54,64.0,0,0,0
2017-09-07 14:00,64.0,0,0,0
2017-09-07 14:06,64.8,0,0,0
2017-09-07 14:12,65.1,0,0,0
2017-09-07 14:18,65.8,0,0,0
2017-09-07 14:24,65.3,0,0,0
2017-09-07 14:30,65.7,0,0,0
2017-09-07 14:36,66.0,0,0,0
2017-09-07 14:42,66.2,0,0,0
2017-09-07 14:48,66.9,0,0,0
2017-09-07 14:54,66.6,0,0,0
2017-09-07 15:00,66.4,0,0,0
2017-09-07 15:06,66.7,0,0,0
2017-09-07 15:12,66.7,0,0,0
2017-09-07 15:18,67.3,0,0,0
2017-09-07 15:24,67.6,0,0,0
2017-09-07 15:30,67.6,0,0,0
2017-09-07 15:36,67.8,0,0,0
2017-09-07 15:42,68.4,0,0,0
2017-09-07 15:48,68.2,0,0,0
2017-09-07 15:54,68.4,0,0,0
2017-09-07 16:00,68.9,0,0,0
2017-09-07 16:06,69.1,0,0,0
2017-09-07 16:12,69.4,0,0,0
2017-09-07 16:18,70.0,0,0,0
2017-09-07 16:24,70.3,0,0,0
2017-09-07 16:30,70.5,0,0,0
2017-09-07 16:36,71.6,0,0,0
2017-09-07 16:42,71.1,0,0,0
2017-09-07 16:48,71.2,0,0,0
2017-09-07 16:54,71.2,0,0,0
2017-09-07 17:00,72.0,0,0,0
2017-09-07 17:06,72.0,0,0,0
2017-09-07 17:12,72.0,0,0,0
2017-09-07 17:18,72.0,0,0,0
2017-09-07 17:24,72.1,0,0,0
2017-09-07 17:30,72.0,0,0,0
2017-09-07 17:36,72.7,0,0,0
2017-09-07 17:42,72.9,0,0,0
2017-09-07 17:48,73.0,0,0,0
2017-09-07 17:54,73.2,0,0,0
2017-09-07 18:00,72.7,0,0,0
2017-09-07 18:06,73.0,0,0,0
2017-09-07 18:12,73.6,0,0,0
2017-09-07 18:18,73.6,0,0,0
2017-09-07 18:24,73.8,0,0,0
2017-09-07 18:30,73.2,0,0,0
2017-09-07 18:36,73.2,0,0,0
2017-09-07 18:42,73.4,0,0,0
2017-09-07 18:48,73.6,0,0,0
2017-09-07 18:54,73.6,0,0,0
2017-09-07 19:00,73.8,0,0,0
2017-09-07 19:06,73.8,0,0,0
2017-09-07 19:12,73.9,0,0,0
2017-09-07 19:18,73.9,0,0,0
2017-09-07 19:24,74.1,0,0,0
2017-09-07 19:30,74.1,0,0,0
2017-09-07 19:36,74.3,0,0,0
2017-09-07 19:42,74.3,0,0,0
2017-09-07 19:48,74.1,0,0,0
2017-09-07 19:54,73.6,0,0,0
2017-09-07 20:00,74.1,0,0,0
2017-09-07 20:06,73.9,0,0,0
2017-09-07 20:12,74.7,0,0,0
2017-09-07 20:18,74.1,0,0,0
2017-09-07 20:24,74.3,0,0,0
2017-09-07 20:30,74.3,0,0,0
2017-09-07 20:36,74.5,0,0,0
2017-09-07 20:42,74.5,0,0,0
2017-09-07 20:48,74.3,0,0,0
2017-09-07 20:54,74.3,0,0,0
2017-09-07 21:00,74.1,0,0,0
2017-09-07 21:06,73.9,0,0,0
2017-09-07 21:12,74.3,0,0,0
2017-09-07 21:18,74.7,0,0,0
2017-09-07 21:24,74.3,0,0,0
2017-09-07 21:30,74.5,0,0,0
2017-09-07 21:36,74.7,0,0,0
2017-09-07 21:42,74.7,0,0,0
2017-09-07 21:48,74.7,0,0,0
2017-09-07 21:54,74.5,0,0,0
2017-09-07 22:00,74.5,0,0,0
2017-09-07 22:06,74.5,0,0,0
2017-09-07 22:12,74.7,0,0,0
2017-09-07 22:18,74.5,0,0,0
2017-09-07 22:24,74.5,0,0,0
2017-09-07 22:30,74.3,0,0,0
2017-09-07 22:36,73.8,0,0,0
2017-09-07 22:42,73.6,0,0,0
2017-09-07 22:48,73.4,0,0,0
2017-09-07 22:54,73.4,0,0,0
2017-09-07 23:00,73.2,0,0,0
2017-09-07 23:06,73.2,0,0,0
2017-09-07 23:12,72.9,0,0,0
2017-09-07 23:18,72.5,0,0,0
2017-09-07 23:24,72.0,0,0,0
2017-09-07 23:30,71.6,0,0,0
2017-09-07 23:36,71.6,0,0,0
2017-09-07 23:42,71.2,0,0,0
2017-09-07 23:48,71.1,0,0,0
2017-09-07 23:54,71.1,0,0,0
2017-09-08 00:00,70.9,0,0,0
2017-09-08 00:06,70.7,0,0,0
2017-09-08 00:12,70.5,0,0,0
2017-09-08 00:18,70.3,0,0,0
2017-09-08 00:24,70.2,0,0,0
2017-09-08 00:30,69.1,0,0,0
2017-09-08 00:36,68.5,0,0,0
2017-09-08 00:42,68.4,0,0,0
2017-09-08 00:48,68.4,0,0,0
2017-09-08 00:54,68.4,0,0,0
2017-09-08 01:00,67.8,0,0,0
2017-09-08 01:06,68.0,0,0,0
2017-09-08 01:12,67.3,0,0,0
2017-09-08 01:18,66.7,0,0,0
2017-09-08 01:24,66.7,0,0,0
2017-09-08 01:30,66.6,0,0,0
2017-09-08 01:36,66.2,0,0,0
2017-09-08 01:42,66.0,0,0,0
2017-09-08 01:48,65.8,0,0,0
2017-09-08 01:54,65.3,0,0,0
2017-09-08 02:00,65.1,0,0,0
2017-09-08 02:06,64.9,0,0,0
2017-09-08 02:12,64.9,0,0,0
2017-09-08 02:18,64.8,0,0,0
2017-09-08 02:24,64.9,0,0,0
2017-09-08 02:30,64.9,0,0,0
2017-09-08 02:36,64.8,0,0,0
2017-09-08 02:42,64.4,0,0,0
2017-09-08 02:48,64.4,0,0,0
2017-09-08 02:54,64.2,0,0,0
2017-09-08 03:00,64.0,0,0,0
2017-09-08 03:06,63.9,0,0,0
2017-09-08 03:12,63.5,0,0,0
2017-09-08 03:18,63.5,0,0,0
2017-09-08 03:24,63.1,0,0,0
2017-09-08 03:30,63.3,0,0,0
2017-09-08 03:36,63.1,0,0,0
2017-09-08 03:42,63.0,0,0,0
2017-09-08 03:48,62.8,0,0,0
2017-09-08 03:54,62.6,0,0,0
2017-09-08 04:00,62.4,0,0,0
2017-09-08 04:06,62.2,0,0,0
2017-09-08 04:12,62.2,0,0,0
2017-09-08 04:18,62.2,0,0,0
2017-09-08 04:24,62.2,0,0,0
2017-09-08 04:30,62.4,0,0,0
2017-09-08 04:36,62.6,0,0,0
2017-09-08 04:42,62.2,0,0,0
2017-09-08 04:48,62.1,0,0,0
2017-09-08 04:54,62.1,0,0,0
2017-09-08 05:00,62.1,0,0,0
2017-09-08 05:06,61.9,0,0,0
2017-09-08 05:12,61.7,0,0,0
2017-09-08 05:18,61.9,0,0,0
2017-09-08 05:24,62.1,0,0,0
2017-09-08 05:30,61.9,0,0,0
2017-09-08 05:36,62.1,0,0,0
2017-09-08 05:42,62.2,0,0,0
2017-09-08 05:48,62.4,0,0,0
2017-09-08 05:54,62.4,0,0,0
2017-09-08 06:00,62.1,0,0,0
2017-09-08 06:06,61.9,0,0,0
2017-09-08 06:12,61.9,0,0,0
2017-09-08 06:18,62.1,0,0,0
2017-09-08 06:24,62.1,0,0,0
2017-09-08 06:30,61.9,0,0,0
2017-09-08 06:36,61.5,0,0,0
2017-09-08 06:42,61.2,0,0,0
2017-09-08 06:48,61.2,0,0,0
2017-09-08 06:54,61.0,0,0,0
2017-09-08 07:00,60.6,0,0,0
2017-09-08 07:06,60.6,0,0,0
2017-09-08 07:12,60.8,0,0,0
2017-09-08 07:18,60.8,0,0,0
2017-09-08 07:24,60.6,0,0,0
2017-09-08 07:30,60.4,0,0,0
2017-09-08 07:36,60.3,0,0,0
2017-09-08 07:42,59.9,0,0,0
2017-09-08 07:48,59.9,0,0,0
2017-09-08 07:54,59.9,0,0,0
2017-09-08 08:00,60.3,0,0,0
2017-09-08 08:06,60.8,0,0,0
2017-09-08 08:12,60.4,0,0,0
2017-09-08 08:18,59.9,0,0,0
2017-09-08 08:24,60.1,0,0,0
2017-09-08 08:30,60.6,0,0,0
2017-09-08 08:36,60.8,0,0,0
2017-09-08 08:42,61.2,0,0,0
2017-09-08 08:48,60.8,0,0,0
2017-09-08 08:54,60.3,0,0,0
2017-09-08 09:00,60.3,0,0,0
2017-09-08 09:06,60.6,0,0,0
2017-09-08 09:12,60.6,0,0,0
2017-09-08 09:18,61.0,0,0,0
2017-09-08 09:24,60.6,0,0,0
2017-09-08 09:30,60.4,0,0,0
2017-09-08 09:36,60.4,0,0,0
2017-09-08 09:42,60.3,0,0,0
2017-09-08 09:48,59.9,0,0,0
2017-09-08 09:54,59.5,0,0,0
2017-09-08 10:00,59.4,0,0,0
2017-09-08 10:06,59.5,0,0,0
2017-09-08 10:12,59.7,0,0,0
2017-09-08 10:18,59.7,0,0,0
2017-09-08 10:24,59.5,0,0,0
2017-09-08 10:30,59.5,0,0,0
2017-09-08 10:36,59.4,0,0,0
2017-09-08 10:42,59.4,0,0,0
2017-09-08 10:48,59.2,0,0,0
2017-09-08 10:54,59.2,0,0,0
2017-09-08 11:00,59.4,0,0,0
2017-09-08 11:06,59.7,0,0,0
2017-09-08 11:12,59.9,0,0,0
2017-09-08 11:18,59.9,0,0,0
2017-09-08 11:24,60.3,0,0,0
2017-09-08 11:30,60.4,0,0,0
2017-09-08 11:36,60.4,0,0,0
2017-09-08 11:42,60.8,0,0,0
2017-09-08 11:48,61.3,0,0,0
2017-09-08 11:54,61.9,0,0,0
2017-09-08 12:00,62.4,0,0,0
2017-09-08 12:06,62.8,0,0,0
2017-09-08 12:12,63.3,0,0,0
2017-09-08 12:18,63.7,0,0,0
2017-09-08 12:24,64.2,0,0,0
2017-09-08 12:30,64.4,0,0,0
2017-09-08 12:36,64.9,0,0,0
2017-09-08 12:42,65.3,0,0,0
2017-09-08 12:48,65.7,0,0,0
2017-09-08 12:54,66.2,0,0,0
2017-09-08 13:00,66.7,0,0,0
2017-09-08 13:06,67.3,0,0,0
2017-09-08 13:12,67.6,0,0,0
2017-09-08 13:18,68.0,0,0,0
2017-09-08 13:24,68.7,0,0,0
2017-09-08 13:30,68.7,0,0,0
2017-09-08 13:36,69.1,0,0,0
2017-09-08 13:42,69.3,0,0,0
2017-09-08 13:48,69.4,0,0,0
2017-09-08 13:54,69.4,0,0,0
2017-09-08 14:00,69.8,0,0,0
2017-09-08 14:06,69.8,0,0,0
2017-09-08 14:12,69.8,0,0,0
2017-09-08 14:18,70.0,0,0,0
2017-09-08 14:24,70.3,0,0,0
2017-09-08 14:30,70.5,0,0,0
2017-09-08 14:36,70.3,0,0,0
2017-09-08 14:42,70.5,0,0,0
2017-09-08 14:48,70.9,0,0,0
2017-09-08 14:54,71.1,0,0,0
2017-09-08 15:00,71.1,0,0,0
2017-09-08 15:06,71.2,0,0,0
2017-09-08 15:12,71.4,0,0,0
2017-09-08 15:18,71.6,0,0,0
2017-09-08 15:24,72.0,0,0,0
2017-09-08 15:30,72.0,0,0,0
2017-09-08 15:36,71.8,0,0,0
2017-09-08 15:42,72.0,0,0,0
2017-09-08 15:48,71.6,0,0,0
2017-09-08 15:54,72.1,0,0,0
2017-09-08 16:00,72.7,0,0,0
2017-09-08 16:06,72.5,0,0,0
2017-09-08 16:12,72.5,0,0,0
2017-09-08 16:18,72.7,0,0,0
2017-09-08 16:24,72.9,0,0,0
2017-09-08 16:30,72.9,0,0,0
2017-09-08 16:36,72.9,0,0,0
2017-09-08 16:42,73.2,0,0,0
2017-09-08 16:48,73.2,0,0,0
2017-09-08 16:54,73.0,0,0,0
2017-09-08 17:00,73.8,0,0,0
2017-09-08 17:06,73.9,0,0,0
2017-09-08 17:12,73.9,0,0,0
2017-09-08 17:18,73.9,0,0,0
2017-09-08 17:24,74.5,0,0,0
2017-09-08 17:30,74.7,0,0,0
2017-09-08 17:36,74.8,0,0,0
2017-09-08 17:42,74.7,0,0,0
2017-09-08 17:48,74.1,0,0,0
2017-09-08 17:54,74.3,0,0,0
2017-09-08 18:00,74.5,0,0,0
2017-09-08 18:06,74.8,0,0,0
2017-09-08 18:12,74.7,0,0,0
2017-09-08 18:18,74.5,0,0,0
2017-09-08 18:24,74.5,0,0,0
2017-09-08 18:30,74.3,0,0,0
2017-09-08 18:36,75.0,0,0,0
2017-09-08 18:42,75.7,0,0,0
2017-09-08 18:48,74.8,0,0,0
2017-09-08 18:54,74.7,0,0,0
2017-09-08 19:00,75.0,0,0,0
2017-09-08 19:06,75.0,0,0,0
2017-09-08 19:12,75.9,0,0,0
2017-09-08 19:18,75.4,0,0,0
2017-09-08 19:24,75.6,0,0,0
2017-09-08 19:30,75.9,0,0,0
2017-09-08 19:36,75.9,0,0,0
2017-09-08 19:42,75.7,0,0,0
2017-09-08 19:48,75.7,0,0,0
2017-09-08 19:54,75.6,0,0,0
2017-09-08 20:00,75.9,0,0,0
2017-09-08 20:06,75.7,0,0,0
2017-09-08 20:12,75.2,0,0,0
2017-09-08 20:18,75.0,0,0,0
2017-09-08 20:24,75.0,0,0,0
2017-09-08 20:30,74.7,0,0,0
2017-09-08 20:36,74.8,0,0,0
2017-09-08 20:42,74.8,0,0,0
2017-09-08 20:48,75.0,0,0,0
2017-09-08 20:54,75.0,0,0,0
2017-09-08 21:00,74.8,0,0,0
2017-09-08 21:06,74.8,0,0,0
2017-09-08 21:12,75.4,0,0,0
2017-09-08 21:18,74.8,0,0,0
2017-09-08 21:24,75.4,0,0,0
2017-09-08 21:30,74.8,0,0,0
2017-09-08 21:36,75.0,0,0,0
2017-09-08 21:42,74.8,0,0,0
2017-09-08 21:48,74.7,0,0,0
2017-09-08 21:54,75.2,0,0,0
2017-09-08 22:00,75.0,0,0,0
2017-09-08 22:06,75.0,0,0,0
2017-09-08 22:12,75.0,0,0,0
2017-09-08 22:18,74.7,0,0,0
2017-09-08 22:24,74.7,0,0,0
2017-09-08 22:30,74.3,0,0,0
2017-09-08 22:36,73.8,0,0,0
2017-09-08 22:42,73.6,0,0,0
2017-09-08 22:48,73.4,0,0,0
2017-09-08 22:54,73.2,0,0,0
2017-09-08 23:00,73.0,0,0,0
2017-09-08 23:06,72.9,0,0,0
2017-09-08 23:12,72.7,0,0,0
2017-09-08 23:18,72.3,0,0,0
2017-09-08 23:24,72.1,0,0,0
2017-09-08 23:30,72.1,0,0,0
2017-09-08 23:36,72.0,0,0,0
2017-09-08 23:42,71.6,0,0,0
2017-09-08 23:48,71.6,0,0,0
2017-09-08 23:54,71.4,0,0,0
